ATLAS 5 CENTAUR DEB, 44106

Orbit data source: Space-Track

ATLAS 5 CENTAUR DEB, 44106 is space debris in HEO originally from a launch on Wed, 17 Sep 2014 UTC launched from the Air Force Eastern Test Range (AFETR). Debris objects in space refer to the collection of defunct objects orbiting the Earth. Examples of debris include non-operational satellites, rocket bodies, and fragments generated from explosions, collisions, or faulty payload assembly.

Loading next visibility...
Identifier
44106, 2014-055CB
Orbit
HEO
Country
Flag of USUS
Related business
Flag of USUnited Launch Alliance/Lockheed Martin (US)
Manufacturer
Unknown
Mission
Spacecraft
Bus & Motor
Unknown
Mass
Unknown
Launch date (UTC)
2014-09-17 (12 years ago)
Launch vehicle
Unknown
Launch site
Air Force Eastern Test Range (AFETR)
Object type
Payload
Rocket body
Debris
Shape & HBR
Unknown shape, 1.1 m
Radar Cross Section
Medium (>0.1 m² and <1 m²)

Expand to show TLE details & history
Last TLE update: 1 week ago

TLE from 1 week ago
0 ATLAS 5 CENTAUR DEB
1 44106U 14055CB  26228.02639808 -.00000116  00000-0  00000-0 0  9995
2 44106  20.2011 137.2730 4789601 175.7825 190.4705  1.84989062 50857
Epoch: 2026-08-16T00:38Z
TLE epoch observation values (Epoch: 2026-08-16T00:38:00.794Z)
Latitude
0.00005°
Longitude
163.33897°
Altitude
34,997.855 km
Speed
2.247 km/s
True Right ascension
09h 09m 05s
True Declination
0° 00' 00"
Sunlit
Object was in daylight at epoch
Visualization orbit readout
Latitude
Unknown
Longitude
Unknown
Altitude
Unknown
Speed
Unknown
Apparent Right ascension
Unknown
Apparent Declination
Unknown
Sunlit
N/A
Visualization observer readout
Local Sidereal Time
15:54:06
Azimuth
Unknown
Elevation
Unknown
Doppler factor
Unknown
Orbital elements
Apogee altitude
35,081.365 km
Perigee altitude
8,228.109 km
Semi-major axis
28,032.874 km
Eccentricity
0.47896
Inclination
20.2011°
RAAN
137.273°
Arg. of periapsis
175.7825°
True anomaly
184.20906°
Mean anomaly
190.4705°
Eccentric anomaly
187.08548°
Mean motion
0.46243 °/min
Orbital period
778.5 mins
BSTAR
0
Loading maneuver chart data...
Computing Atmospheric mass density...

Documentation

Showing up to 5 results
|